Location: Arcadia
(34.1397°N, 118.0353°W)
Time: 22:34:25
(UTC+00:00)

SL-16 R/B - Pass Details

Date: 08 September 2024
Orbit: 842 x 845 km, 71.0° (Epoch: 13 October)

Event Time Altitude Azimuth Distance (km) Brightness Sun altitude
Rises 12:57:21 0° 321° (NW) 3,406 5.1 -7.7°
Reaches altitude 10° 13:00:21 10° 306° (NW) 2,467 4.2 -7.1°
Maximum altitude 13:04:27 21° 260° (W) 1,813 3.3 -6.3°
Drops below altitude 10° 13:08:33 10° 213° (SSW) 2,456 4.2 -5.4°
Sets 13:11:33 0° 197° (SSW) 3,386 5.1 -4.8°
